KB0DHM Weather Reports


time (UTC)temp
C
wind
direction
speed
KPH
gust
KPH
rain 1hr
cm
rain 24hr
cm
rain mn
cm
humidity
%
barometer
mb
20260504050005 13 72 0.0 0.0 0.00 1.42 0.00 45 1000.9
20260504044502 12 72 0.0 0.0 0.00 1.42 1.42 46 1001.2
20260504043104 12 72 0.0 0.0 0.00 1.42 1.42 47 1001.5
20260504041558 12 72 0.0 0.0 0.03 1.42 1.42 49 1001.9
20260504040037 12 72 0.0 0.0 0.03 1.42 1.42 48 1002.3
20260504034535 12 72 0.0 0.0 0.05 1.42 1.42 49 1002.5
20260504033015 12 72 0.0 0.0 0.08 1.42 1.42 47 1002.9
20260504031514 13 72 0.0 0.0 0.05 1.42 1.42 45 1003.1
20260504030054 13 72 0.0 0.0 0.05 1.42 1.42 42 1003.5
20260504024552 14 72 0.0 0.0 0.03 1.40 1.40 41 1003.6
20260504023032 15 72 0.0 0.0 0.03 1.37 1.37 38 1003.7
20260504021533 15 72 0.0 0.0 0.03 1.37 1.37 36 1003.9
20260504020014 16 72 0.0 0.0 0.03 1.37 1.37 35 1003.9
20260504014514 17 72 0.0 0.0 0.03 1.37 1.37 33 1003.9
20260504013111 18 72 0.0 0.0 0.00 1.35 1.35 31 1003.9
20260504011555 18 72 0.0 0.0 0.00 1.35 1.35 28 1003.9
20260504010039 20 72 0.0 0.0 0.00 1.35 1.35 27 1004.0
20260504004534 21 72 0.0 0.0 0.00 1.35 1.35 24 1004.1
20260504003015 21 72 0.0 0.0 0.00 1.35 1.35 25 1004.2
20260504001513 21 72 0.0 0.0 0.00 1.35 1.35 23 1004.3
20260504000109 21 72 0.0 0.0 0.00 1.35 1.35 23 1004.3
20260503234554 21 72 0.0 1.6 0.00 1.35 1.35 22 1004.4
20260503233033 22 72 0.0 0.0 0.00 1.35 1.35 23 1004.4
20260503231533 22 72 0.0 0.0 0.00 1.35 1.35 22 1004.5
20260503230021 23 72 0.0 1.6 0.00 1.35 1.35 22 1004.7
20260503224519 23 72 0.0 0.0 0.00 1.35 1.35 22 1004.7
20260503223018 23 72 0.0 1.6 0.00 1.35 1.35 22 1004.9
20260503221515 22 72 0.0 3.2 0.00 1.35 1.35 21 1005.0
20260503220013 22 71 0.0 1.6 0.08 1.35 1.35 22 1005.1
20260503214518 21 69 0.0 1.6 0.08 1.35 1.35 24 1005.3
20260503213011 21 69 0.0 4.8 0.08 1.35 1.35 23 1005.3
20260503211510 22 69 0.0 3.2 0.08 1.35 1.35 23 1005.5
20260503210110 21 69 0.0 4.8 0.00 1.27 1.27 22 1005.8
20260503204551 20 69 0.0 3.2 0.03 1.32 1.27 23 1005.8
20260503203054 21 69 0.0 1.6 0.03 1.32 1.27 22 1006.1
20260503201530 21 69 0.0 1.6 0.03 1.32 1.27 24 1006.1
20260503200029 20 69 0.0 1.6 0.03 1.32 1.27 26 1006.3
20260503194510 20 69 0.0 3.2 0.00 1.30 1.24 23 1006.4
20260503193012 20 69 0.0 3.2 0.00 1.30 1.24 24 1006.7
20260503191549 19 69 0.0 6.4 0.00 1.30 1.24 25 1006.8
20260503190048 18 69 0.0 3.2 0.00 1.30 1.24 24 1007.0
20260503184528 18 69 0.0 4.8 0.00 1.30 1.24 25 1007.1
20260503183027 18 69 0.0 4.8 0.00 1.30 1.24 27 1007.2
20260503181509 18 69 0.0 3.2 0.00 1.30 1.24 27 1007.2
20260503180008 18 69 0.0 3.2 0.00 1.30 1.24 29 1007.4
20260503174551 18 69 0.0 4.8 0.00 1.30 1.24 31 1007.5
20260503173102 19 69 0.0 6.4 1.24 1.30 1.24 29 1007.5
20260503171531 18 69 0.0 1.6 1.24 1.30 1.24 33 1007.5
20260503081518 11 69 0.0 0.0 0.00 0.05 0.00 56 1005.7
20260503071528 12 69 0.0 0.0 0.00 0.05 0.00 55 1006.0